| time (UTC) | temp C | wind direction | speed KPH | gust KPH | rain 1hr cm | rain 24hr cm | rain mn cm | humidity % | barometer mb |
| 20260507194515 | 8 | 5 | 0.0 | 0.0 | 0.00 | 0.71 | 0.43 | 88 | 1014.7 |
| 20260507193019 | 9 | 5 | 0.0 | 0.0 | 0.00 | 0.71 | 0.43 | 86 | 1014.6 |
| 20260507191512 | 10 | 5 | 0.0 | 0.0 | 0.00 | 0.71 | 0.43 | 84 | 1014.5 |
| 20260507190016 | 11 | 5 | 0.0 | 0.0 | 0.00 | 0.71 | 0.43 | 80 | 1014.3 |
| 20260507184509 | 11 | 5 | 0.0 | 0.0 | 0.00 | 0.79 | 0.43 | 78 | 1014.3 |
| 20260507183010 | 11 | 5 | 0.0 | 0.0 | 0.00 | 0.79 | 0.43 | 78 | 1014.1 |
| 20260507181508 | 11 | 5 | 0.0 | 12.9 | 0.00 | 0.79 | 0.43 | 77 | 1014.1 |
| 20260507180005 | 12 | 325 | 0.0 | 0.0 | 0.00 | 0.79 | 0.43 | 78 | 1013.9 |
| 20260507174513 | 12 | 316 | 0.0 | 0.0 | 0.00 | 0.81 | 0.43 | 78 | 1013.9 |
| 20260507173004 | 12 | 321 | 0.0 | 3.2 | 0.00 | 0.81 | 0.43 | 78 | 1013.7 |
| 20260507171502 | 12 | 355 | 0.0 | 6.4 | 0.00 | 0.81 | 0.43 | 78 | 1013.7 |
| 20260507170002 | 12 | 329 | 0.0 | 14.5 | 0.00 | 0.81 | 0.43 | 77 | 1013.6 |
| 20260507164601 | 12 | 264 | 0.0 | 12.9 | 0.00 | 0.81 | 0.43 | 76 | 1013.7 |
| 20260507163100 | 12 | 296 | 0.0 | 11.3 | 0.00 | 0.81 | 0.43 | 75 | 1013.6 |
| 20260507161601 | 12 | 327 | 1.6 | 20.9 | 0.00 | 0.81 | 0.43 | 75 | 1013.5 |
| 20260507160118 | 13 | 275 | 1.6 | 17.7 | 0.00 | 0.81 | 0.43 | 74 | 1013.6 |
| 20260507154557 | 13 | 310 | 1.6 | 14.5 | 0.00 | 0.81 | 0.43 | 74 | 1013.6 |
| 20260507153049 | 13 | 332 | 0.0 | 0.0 | 0.00 | 0.81 | 0.43 | 74 | 1013.5 |
| 20260507151555 | 12 | 294 | 0.0 | 9.7 | 0.00 | 0.81 | 0.43 | 75 | 1013.5 |
| 20260507150047 | 12 | 318 | 4.8 | 25.7 | 0.00 | 0.81 | 0.43 | 74 | 1013.6 |
| 20260507144546 | 12 | 279 | 1.6 | 14.5 | 0.00 | 0.81 | 0.43 | 76 | 1013.4 |
| 20260507143045 | 12 | 316 | 0.0 | 12.9 | 0.00 | 0.81 | 0.43 | 76 | 1013.5 |
| 20260507141546 | 12 | 309 | 3.2 | 22.5 | 0.00 | 0.81 | 0.43 | 77 | 1013.5 |
| 20260507140047 | 12 | 259 | 1.6 | 14.5 | 0.00 | 0.81 | 0.43 | 78 | 1013.6 |
| 20260507134543 | 12 | 324 | 4.8 | 16.1 | 0.00 | 0.81 | 0.43 | 76 | 1013.6 |
| 20260507133040 | 12 | 313 | 0.0 | 14.5 | 0.00 | 0.81 | 0.43 | 80 | 1013.6 |
| 20260507131607 | 11 | 330 | 3.2 | 20.9 | 0.00 | 0.81 | 0.43 | 82 | 1013.5 |
| 20260507130038 | 11 | 296 | 1.6 | 22.5 | 0.00 | 0.81 | 0.43 | 81 | 1013.5 |
| 20260507124544 | 11 | 257 | 1.6 | 20.9 | 0.00 | 0.81 | 0.43 | 81 | 1013.5 |
| 20260507123042 | 11 | 283 | 3.2 | 17.7 | 0.00 | 0.81 | 0.43 | 83 | 1013.4 |
| 20260507121534 | 11 | 320 | 0.0 | 22.5 | 0.00 | 0.81 | 0.43 | 83 | 1013.3 |
| 20260507120038 | 11 | 279 | 0.0 | 32.2 | 0.00 | 0.81 | 0.43 | 82 | 1013.2 |
| 20260507114533 | 11 | 275 | 11.3 | 29.0 | 0.00 | 0.81 | 0.43 | 82 | 1013.2 |
| 20260507113100 | 11 | 281 | 0.0 | 16.1 | 0.00 | 0.81 | 0.43 | 82 | 1013.1 |
| 20260507111532 | 11 | 246 | 4.8 | 19.3 | 0.00 | 0.81 | 0.43 | 82 | 1013.1 |
| 20260507110029 | 11 | 310 | 0.0 | 17.7 | 0.00 | 0.81 | 0.43 | 82 | 1013.1 |
| 20260507104524 | 11 | 293 | 1.6 | 11.3 | 0.00 | 0.81 | 0.43 | 84 | 1013.1 |
| 20260507103023 | 11 | 290 | 1.6 | 14.5 | 0.00 | 0.81 | 0.43 | 84 | 1013.1 |
| 20260507101524 | 11 | 273 | 8.0 | 19.3 | 0.00 | 0.81 | 0.43 | 84 | 1013.1 |
| 20260507100030 | 10 | 237 | 3.2 | 16.1 | 0.00 | 0.81 | 0.43 | 88 | 1012.9 |
| 20260507094516 | 10 | 306 | 1.6 | 9.7 | 0.00 | 0.81 | 0.43 | 91 | 1012.9 |
| 20260507093014 | 10 | 300 | 3.2 | 12.9 | 0.00 | 0.81 | 0.43 | 92 | 1012.7 |
| 20260507091516 | 10 | 276 | 0.0 | 11.3 | 0.03 | 0.81 | 0.43 | 93 | 1012.5 |
| 20260507090012 | 10 | 264 | 0.0 | 12.9 | 0.03 | 0.81 | 0.43 | 94 | 1012.4 |
| 20260507084518 | 9 | 287 | 0.0 | 8.0 | 0.05 | 0.81 | 0.43 | 95 | 1012.4 |
| 20260507083017 | 8 | 280 | 0.0 | 11.3 | 0.05 | 0.81 | 0.43 | 95 | 1012.3 |
| 20260507081504 | 8 | 294 | 1.6 | 12.9 | 0.03 | 0.79 | 0.41 | 95 | 1012.2 |
| 20260507080003 | 8 | 265 | 0.0 | 14.5 | 0.03 | 0.79 | 0.41 | 95 | 1012.0 |
| 20260507074600 | 8 | 281 | 0.0 | 9.7 | 0.00 | 0.79 | 0.38 | 95 | 1011.9 |
| 20260507073108 | 8 | 271 | 1.6 | 12.9 | 0.03 | 0.79 | 0.38 | 95 | 1011.7 |
| 20260507071556 | 8 | 279 | 0.0 | 11.3 | 0.05 | 0.79 | 0.38 | 95 | 1011.5 |
| 20260507070106 | 8 | 294 | 0.0 | 11.3 | 0.05 | 0.79 | 0.38 | 95 | 1011.3 |
| 20260507064554 | 8 | 296 | 4.8 | 16.1 | 0.05 | 0.79 | 0.38 | 95 | 1011.2 |
| 20260507063054 | 8 | 291 | 3.2 | 16.1 | 0.05 | 0.76 | 0.36 | 95 | 1011.0 |
| 20260507061546 | 8 | 314 | 0.0 | 14.5 | 0.05 | 0.71 | 0.33 | 95 | 1010.9 |
| 20260507060048 | 8 | 306 | 3.2 | 17.7 | 0.08 | 0.71 | 0.33 | 95 | 1010.7 |
| 20260507054542 | 8 | 259 | 4.8 | 16.1 | 0.10 | 0.71 | 0.33 | 95 | 1010.5 |
| 20260507053039 | 8 | 264 | 3.2 | 12.9 | 0.10 | 0.71 | 0.30 | 95 | 1010.4 |
| 20260507051535 | 9 | 235 | 6.4 | 17.7 | 0.10 | 0.69 | 0.28 | 95 | 1010.1 |
| 20260507050057 | 9 | 254 | 0.0 | 9.7 | 0.05 | 0.64 | 0.23 | 95 | 1009.9 |
| 20260507044536 | 9 | 246 | 0.0 | 8.0 | 0.05 | 0.61 | 0.23 | 94 | 1009.8 |
| 20260507043027 | 9 | 253 | 0.0 | 6.4 | 0.05 | 0.61 | 0.20 | 94 | 1009.6 |
| 20260507041526 | 9 | 246 | 0.0 | 6.4 | 0.05 | 0.58 | 0.18 | 94 | 1009.4 |
| 20260507040024 | 9 | 261 | 0.0 | 12.9 | 0.05 | 0.58 | 0.18 | 94 | 1009.2 |
| 20260507034522 | 9 | 240 | 1.6 | 16.1 | 0.05 | 0.56 | 0.15 | 94 | 1009.1 |
| 20260507033026 | 9 | 241 | 1.6 | 22.5 | 0.05 | 0.53 | 0.15 | 93 | 1008.8 |
| 20260507031515 | 10 | 247 | 0.0 | 14.5 | 0.03 | 0.51 | 0.13 | 94 | 1008.7 |
| 20260507030012 | 9 | 222 | 0.0 | 12.9 | 0.05 | 0.51 | 0.13 | 94 | 1008.6 |
| 20260507024515 | 9 | 240 | 0.0 | 11.3 | 0.03 | 0.51 | 0.10 | 94 | 1008.5 |
| 20260507023009 | 9 | 198 | 0.0 | 3.2 | 0.05 | 0.51 | 0.10 | 94 | 1008.4 |
| 20260507021517 | 9 | 211 | 0.0 | 1.6 | 0.08 | 0.51 | 0.10 | 94 | 1008.4 |
| 20260507020005 | 10 | 229 | 0.0 | 0.0 | 0.05 | 0.48 | 0.08 | 94 | 1008.2 |
| 20260507014504 | 10 | 229 | 0.0 | 0.0 | 0.05 | 0.48 | 0.08 | 94 | 1008.2 |
| 20260507013007 | 10 | 229 | 0.0 | 0.0 | 0.03 | 0.43 | 0.05 | 93 | 1008.1 |
| 20260507011504 | 10 | 229 | 0.0 | 0.0 | 0.00 | 0.43 | 0.03 | 93 | 1008.1 |
| 20260507010002 | 10 | 229 | 0.0 | 0.0 | 0.00 | 0.43 | 0.03 | 92 | 1008.2 |
| 20260507004559 | 10 | 229 | 0.0 | 0.0 | 0.00 | 0.43 | 0.03 | 92 | 1008.1 |
| 20260507003059 | 10 | 229 | 0.0 | 0.0 | 0.00 | 0.43 | 0.03 | 92 | 1008.1 |
| 20260507001606 | 10 | 229 | 0.0 | 0.0 | 0.00 | 0.43 | 0.03 | 91 | 1008.0 |
| 20260507000058 | 10 | 229 | 0.0 | 4.8 | 0.00 | 0.43 | 0.03 | 91 | 1008.0 |
| 20260506234621 | 10 | 254 | 0.0 | 0.0 | 0.03 | 0.43 | 0.03 | 91 | 1008.0 |
| 20260506233054 | 10 | 229 | 0.0 | 3.2 | 0.03 | 0.43 | 0.03 | 91 | 1008.0 |
| 20260506231555 | 10 | 254 | 1.6 | 11.3 | 0.03 | 0.43 | 0.03 | 91 | 1008.1 |
| 20260506230051 | 10 | 237 | 3.2 | 12.9 | 0.03 | 0.43 | 0.03 | 92 | 1008.1 |
| 20260506224549 | 10 | 229 | 0.0 | 9.7 | 0.00 | 0.43 | 0.00 | 93 | 1008.0 |
| 20260506223055 | 10 | 207 | 0.0 | 1.6 | 0.00 | 0.43 | 0.00 | 93 | 1007.9 |
| 20260506221545 | 10 | 259 | 0.0 | 0.0 | 0.05 | 0.43 | 0.00 | 94 | 1007.8 |
| 20260506220043 | 10 | 220 | 0.0 | 0.0 | 0.05 | 0.43 | 0.00 | 94 | 1007.7 |
| 20260506214543 | 10 | 220 | 0.0 | 0.0 | 0.05 | 0.43 | 0.43 | 94 | 1007.6 |
| 20260506213040 | 10 | 220 | 0.0 | 0.0 | 0.08 | 0.43 | 0.43 | 93 | 1007.5 |
| 20260506211539 | 11 | 220 | 0.0 | 0.0 | 0.05 | 0.38 | 0.38 | 93 | 1007.3 |
| 20260506210040 | 10 | 220 | 0.0 | 0.0 | 0.10 | 0.36 | 0.36 | 93 | 1007.3 |
| 20260506204549 | 10 | 220 | 0.0 | 4.8 | 0.15 | 0.36 | 0.36 | 93 | 1007.2 |
| 20260506203037 | 10 | 195 | 0.0 | 6.4 | 0.15 | 0.33 | 0.33 | 93 | 1007.2 |
| 20260506201538 | 11 | 199 | 0.0 | 0.0 | 0.15 | 0.33 | 0.33 | 93 | 1007.0 |
| 20260506200035 | 11 | 192 | 0.0 | 3.2 | 0.13 | 0.25 | 0.25 | 93 | 1007.0 |